Location: Bonningues
(50.7927°N, 2.0150°E)
Time: 17:39:20
(UTC+00:00)

Cosmos 2333 Rocket - Pass Details

Date: 08 August 2020
Orbit: 838 x 864 km, 70.8° (Epoch: 25 September)

Event Time Altitude Azimuth Distance (km) Brightness Sun altitude
Rises 22:30:12 0° 331° (NNW) 3,456 6.9 -20.7°
Reaches altitude 10° 22:32:51 10° 339° (NNW) 2,516 5.9 -20.9°
Maximum altitude 22:38:17 40° 48° (NE) 1,263 3.2 -21.2°
Enters shadow 22:41:23 23° 103° (ESE) 1,772 3.6 -21.4°
